This is the latest recevied weather packets stored in our database for station/object WA6MHA-11. If no packets are shown the sender has not sent any weather packets the latest 1 day(s).
| Time | Temp. | Humidity | Pressure | Rain* | Wind** | Luminosity | Snow |
|---|---|---|---|---|---|---|---|
| 1778079864 | 18.33° C | 53% | 1019.5 hPa | 0 mm | - | - | - |
| 1778077689 | 14.44° C | 58% | 1019.5 hPa | 0 mm | - | - | - |
| 1778075518 | 10° C | 59% | 1019.2 hPa | 0 mm | - | - | - |
| 1778073587 | 7.22° C | 59% | 1019 hPa | 0 mm | - | - | - |
| 1778072382 | 7.22° C | 58% | 1018.7 hPa | 0 mm | - | - | - |
| 1778071416 | 6.67° C | 58% | 1018.8 hPa | 0 mm | - | - | - |
| 1778070935 | 7.22° C | 58% | 1018.6 hPa | 0 mm | - | - | - |
| 1778070812 | 7.22° C | 58% | 1018.6 hPa | 0 mm | - | - | - |
| 1778070210 | 7.22° C | 58% | 1018.5 hPa | 0 mm | - | - | - |
| 1778069970 | 7.78° C | 58% | - | 0 mm | - | - | - |
| 1778069244 | 7.78° C | 58% | 1018.4 hPa | 0 mm | - | - | - |
| 1778067796 | 7.22° C | 58% | 1018.3 hPa | 0 mm | - | - | - |
| 1778067314 | 7.78° C | 58% | 1018.2 hPa | 0 mm | - | - | - |
| 1778066590 | 7.78° C | 58% | 1018.2 hPa | 0 mm | - | - | - |
| 1778065866 | 7.78° C | 58% | 1018.3 hPa | 0 mm | - | - | - |
| 1778065625 | 7.78° C | 58% | 1018.3 hPa | 0 mm | - | - | - |
| 1778065384 | 7.78° C | 58% | 1018.3 hPa | 0 mm | - | - | - |
| 1778063936 | 7.78° C | 57% | 1018.3 hPa | 0 mm | - | - | - |
| 1778063453 | 7.78° C | 57% | 1018.3 hPa | 0 mm | - | - | - |
| 1778063212 | 7.78° C | 57% | 1018.4 hPa | 0 mm | - | - | - |
| 1778062491 | 8.33° C | 57% | 1018.3 hPa | 0 mm | - | - | - |
| 1778061764 | 8.89° C | 57% | 1018.3 hPa | 0 mm | - | - | - |
| 1778061523 | 8.89° C | 57% | 1018.3 hPa | 0 mm | - | - | - |
| 1778061282 | 8.89° C | 57% | 1018.3 hPa | 0 mm | - | - | - |
| 1778059593 | 8.89° C | 57% | 1018.5 hPa | 0 mm | - | - | - |
* Rain since midnight (hover to see other rain measurements)
** Current wind speed in m/s (hover to see current wind gust speed)